Waarnemingen

Advertentie
Mijn weer
Vlissingen, Nederland (6310): temperatuur & dauwpunt: 14.08.2017 00:00:00 - 20.08.2017 00:00:00 (CEST)Vlissingen, Nederland (6310): temperatuur 5cm: 14.08.2017 00:00:00 - 20.08.2017 00:00:00 (CEST)Vlissingen, Nederland (6310): windsnelheid & windstoten: 14.08.2017 00:00:00 - 20.08.2017 00:00:00 (CEST)Vlissingen, Nederland (6310): windrichting: 14.08.2017 00:00:00 - 20.08.2017 00:00:00 (CEST)Vlissingen, Nederland (6310): luchtdruk: 14.08.2017 00:00:00 - 20.08.2017 00:00:00 (CEST)Vlissingen, Nederland (6310): zicht: 14.08.2017 00:00:00 - 20.08.2017 00:00:00 (CEST)Vlissingen, Nederland (6310): neerslag: 14.08.2017 00:00:00 - 20.08.2017 00:00:00 (CEST)
Datum & Tijd tt [°C] td [°C] tt 5cm [°C] ff [km/u] ff [kn] fx [km/u] fx [kn] dd ppp [hPa] vv [km] rr [mm]
20.08.2017 00:00:00 16,0 14,0 15,5 35 19 - - ZW 1019,4 10 -
19.08.2017 23:00:00 16,3 13,6 15,5 31 17 40 21 ZW 1019,3 10 0,0
19.08.2017 22:00:00 16,6 13,1 15,8 29 16 36 19 ZW 1019,3 10 0,0
19.08.2017 21:00:00 18,0 13,8 17,2 42 23 58 31 WZW 1018,5 10 0,0
19.08.2017 20:00:00 18,1 12,9 17,4 44 24 54 29 WZW 1018,3 10 0,0
19.08.2017 19:00:00 18,2 12,2 17,6 48 26 61 33 WZW 1017,9 10 0,0
19.08.2017 18:00:00 18,9 13,0 19,2 44 24 58 31 WZW 1017,8 10 0,0
19.08.2017 17:00:00 18,2 12,6 17,7 37 20 47 25 WZW 1017,9 10 0,0
19.08.2017 16:00:00 18,4 13,1 19,7 35 19 43 23 WZW 1017,8 10 0,0
19.08.2017 15:00:00 17,9 11,1 19,0 39 21 47 25 W 1017,5 10 0,0
19.08.2017 14:00:00 18,1 12,0 18,9 34 18 43 23 W 1017,1 10 0,0
19.08.2017 13:00:00 17,7 12,3 19,0 34 18 43 23 W 1016,7 10 0,0
19.08.2017 12:00:00 17,1 12,4 17,4 34 18 43 23 W 1016,2 10 0,0
19.08.2017 11:00:00 15,9 13,4 15,4 44 24 54 29 WZW 1015,8 10 0,0
19.08.2017 10:00:00 16,4 11,2 15,9 34 18 47 25 W 1015,3 10 0,0
19.08.2017 09:00:00 16,1 10,6 15,5 34 18 50 27 W 1014,6 10 0,1
19.08.2017 08:00:00 16,0 12,6 13,9 34 18 54 29 ZZW 1013,2 10 0,2
19.08.2017 07:00:00 14,4 13,3 13,9 39 21 43 23 ZZW 1013,2 10 0,0
19.08.2017 06:00:00 14,4 13,0 13,8 35 19 43 23 ZW 1012,6 9 0,3
19.08.2017 05:00:00 14,7 12,9 13,9 37 20 47 25 ZW 1012,2 10 0,2
19.08.2017 04:00:00 14,6 12,6 14,0 31 17 40 21 ZZW 1012,3 10 0,2
19.08.2017 03:00:00 14,8 12,6 13,8 26 14 36 19 ZZW 1013,1 10 0,3
19.08.2017 02:00:00 14,8 12,5 13,9 34 18 43 23 ZW 1013,1 10 0,0
19.08.2017 01:00:00 14,8 12,3 14,0 31 17 40 21 ZW 1013,2 10 0,0
19.08.2017 00:00:00 15,5 12,3 14,5 34 18 40 21 ZW 1013,0 10 0,0
18.08.2017 23:00:00 15,7 12,8 14,7 28 15 40 21 ZW 1013,1 10 0,0
18.08.2017 22:00:00 15,5 12,7 14,4 29 16 40 21 ZW 1013,1 10 0,2
18.08.2017 21:00:00 16,4 11,5 15,4 26 14 43 23 W 1012,5 10 0,0
18.08.2017 20:00:00 18,5 13,1 17,7 63 34 72 39 WZW 1011,4 10 0,0
18.08.2017 19:00:00 19,1 12,2 18,5 46 25 61 33 ZW 1011,0 10 0,0
18.08.2017 18:00:00 20,5 12,2 20,3 46 25 54 29 ZW 1010,6 10 0,0
18.08.2017 17:00:00 19,9 14,0 20,3 34 18 43 23 W 1010,7 10 0,0
18.08.2017 16:00:00 19,7 15,1 19,4 34 18 43 23 W 1010,7 10 0,0
18.08.2017 15:00:00 19,5 15,5 19,9 37 20 47 25 WZW 1011,1 10 0,0
18.08.2017 14:00:00 19,3 15,3 19,4 35 19 58 31 W 1011,4 10 0,0
18.08.2017 13:00:00 19,0 15,0 18,9 37 20 47 25 WZW 1011,1 10 0,0
18.08.2017 12:00:00 18,6 15,8 18,6 29 16 40 21 ZW 1011,1 10 0,0
18.08.2017 11:00:00 16,9 15,8 16,3 29 16 40 21 WZW 1011,1 5 2,7
18.08.2017 10:00:00 17,6 16,5 17,4 26 14 32 18 ZZW 1011,4 10 0,6
18.08.2017 09:00:00 18,0 16,0 17,6 26 14 29 16 ZZW 1011,6 10 0,0
18.08.2017 08:00:00 17,7 15,8 17,1 22 12 29 16 ZZW 1011,9 10 0,0
18.08.2017 07:00:00 17,4 15,7 16,9 22 12 29 16 ZZW 1011,7 10 0,0
18.08.2017 06:00:00 17,3 15,7 16,7 22 12 29 16 ZZW 1011,9 10 0,0
18.08.2017 05:00:00 17,2 15,7 16,8 26 14 40 21 ZW 1012,7 10 0,0
18.08.2017 04:00:00 17,5 15,7 16,8 28 15 36 19 ZZW 1012,8 10 0,0
18.08.2017 03:00:00 17,2 15,4 16,4 26 14 32 18 ZZW 1012,7 10 0,0
18.08.2017 02:00:00 17,3 15,0 16,5 28 15 36 19 ZZW 1013,1 10 0,0
18.08.2017 01:00:00 17,2 14,9 16,2 26 14 32 18 ZZW 1013,5 10 0,0
18.08.2017 00:00:00 17,3 14,7 16,4 24 13 32 18 ZW 1013,4 10 0,0
17.08.2017 23:00:00 17,9 14,6 16,8 24 13 32 18 ZW 1013,5 10 0,0
17.08.2017 22:00:00 18,6 14,6 17,5 29 16 36 19 ZW 1013,6 10 0,0
17.08.2017 21:00:00 19,2 14,7 18,1 31 17 40 21 ZW 1013,5 10 0,0
17.08.2017 20:00:00 20,4 15,4 19,6 34 18 40 21 ZW 1013,1 10 0,0
17.08.2017 19:00:00 20,5 17,6 20,6 28 15 36 19 WZW 1012,9 10 0,0
17.08.2017 18:00:00 20,4 18,0 20,9 35 19 47 25 ZW 1012,9 10 0,0
17.08.2017 17:00:00 20,2 18,9 20,0 24 13 36 19 ZZW 1013,1 10 0,1
17.08.2017 16:00:00 19,7 18,8 19,5 26 14 36 19 ZZW 1013,4 10 0,0
17.08.2017 15:00:00 18,7 18,1 18,5 24 13 29 16 ZZW 1013,6 6 3,7
17.08.2017 14:00:00 18,4 17,6 18,4 29 16 36 19 ZZW 1013,4 10 2,5
17.08.2017 13:00:00 18,5 17,1 18,5 29 16 36 19 ZZW 1013,3 10 0,0
17.08.2017 12:00:00 17,8 16,7 18,0 28 15 36 19 Z 1013,3 10 0,0
17.08.2017 11:00:00 17,6 16,3 17,6 21 11 40 21 Z 1013,6 10 0,7
17.08.2017 10:00:00 17,3 15,2 16,9 18 10 25 14 ZW 1013,7 10 1,4
17.08.2017 09:00:00 18,3 15,8 17,9 18 10 25 14 Z 1013,7 10 0,0
17.08.2017 08:00:00 18,1 15,2 17,4 21 11 25 14 Z 1013,6 10 0,1
17.08.2017 07:00:00 17,9 14,8 17,2 26 14 32 18 Z 1013,8 10 0,0
17.08.2017 06:00:00 18,1 13,6 17,5 28 15 32 18 Z 1014,0 10 0,0
17.08.2017 05:00:00 18,4 13,5 17,5 26 14 32 18 ZZO 1014,4 10 0,0
17.08.2017 04:00:00 18,0 13,7 17,1 22 12 29 16 ZO 1015,5 10 0,0
17.08.2017 03:00:00 18,5 13,1 17,5 24 13 32 18 ZO 1016,1 10 0,0
17.08.2017 02:00:00 18,9 14,9 17,6 22 12 29 16 ZO 1016,6 10 0,0
17.08.2017 01:00:00 19,3 16,7 18,2 21 11 25 14 OZO 1017,4 10 0,0
17.08.2017 00:00:00 19,3 16,9 18,1 18 10 22 12 OZO 1018,1 10 0,0
16.08.2017 23:00:00 19,2 15,6 17,4 13 7 18 10 O 1018,5 10 0,0
16.08.2017 22:00:00 18,9 14,5 14,7 4 2 7 4 - 1019,2 10 0,0
16.08.2017 21:00:00 19,0 14,2 16,8 8 4 7 4 WZW 1019,7 10 0,0
16.08.2017 20:00:00 20,1 14,0 19,9 9 5 14 8 W 1019,5 10 0,0
16.08.2017 19:00:00 20,6 15,4 20,4 13 7 18 10 WNW 1019,8 10 0,0
16.08.2017 18:00:00 21,0 14,7 21,6 11 6 18 10 W 1020,1 10 0,0
16.08.2017 17:00:00 21,0 16,0 21,9 13 7 18 10 WNW 1020,0 10 0,0
16.08.2017 16:00:00 21,5 15,6 22,4 9 5 18 10 WZW 1020,1 10 0,0
16.08.2017 15:00:00 21,2 15,7 22,8 8 4 14 8 W 1020,4 10 0,0
16.08.2017 14:00:00 21,7 16,7 23,8 15 8 18 10 ZW 1020,9 10 0,0
16.08.2017 13:00:00 20,2 15,9 21,6 15 8 22 12 ZZW 1020,9 10 0,0
16.08.2017 12:00:00 20,4 16,8 21,4 13 7 18 10 ZZW 1021,1 10 0,0
16.08.2017 11:00:00 18,3 16,1 20,2 13 7 18 10 Z 1021,2 10 0,0
16.08.2017 10:00:00 16,8 15,5 18,9 8 4 11 6 Z 1021,0 9 0,0
16.08.2017 09:00:00 15,9 15,1 16,7 9 5 14 8 ZZW 1020,9 8 0,0
16.08.2017 08:00:00 15,2 14,7 15,1 13 7 18 10 ZZW 1020,5 8 0,0
16.08.2017 07:00:00 14,9 14,3 14,3 13 7 18 10 Z 1020,2 8 0,0
16.08.2017 06:00:00 15,0 14,2 14,0 13 7 14 8 ZW 1019,9 10 0,0
16.08.2017 05:00:00 15,0 14,0 14,2 15 8 18 10 ZW 1019,8 10 0,0
16.08.2017 04:00:00 15,4 14,1 14,4 11 6 14 8 ZW 1019,5 10 0,0
16.08.2017 03:00:00 15,8 14,1 14,8 13 7 14 8 ZW 1019,4 10 0,0
16.08.2017 02:00:00 16,5 14,5 15,5 15 8 22 12 ZW 1019,2 10 0,0
16.08.2017 01:00:00 17,4 14,9 16,4 22 12 29 16 ZW 1019,2 10 0,0
16.08.2017 00:00:00 17,9 15,8 17,0 18 10 25 14 ZW 1018,8 10 0,0
15.08.2017 23:00:00 18,9 15,4 17,9 26 14 36 19 W 1018,3 10 0,0
15.08.2017 22:00:00 19,3 15,7 18,3 24 13 29 16 W 1018,0 10 0,0
15.08.2017 21:00:00 19,2 16,1 18,3 22 12 29 16 W 1017,2 10 0,0
15.08.2017 20:00:00 19,3 16,5 19,2 21 11 29 16 W 1016,8 10 0,0
15.08.2017 19:00:00 19,5 17,0 19,9 21 11 29 16 W 1015,6 10 0,0
15.08.2017 18:00:00 19,7 16,9 20,5 18 10 32 18 W 1015,5 10 0,0
15.08.2017 17:00:00 19,6 17,6 19,9 13 7 22 12 NW 1015,2 10 0,0
15.08.2017 16:00:00 19,2 17,4 19,0 15 8 25 14 WNW 1014,8 10 0,0
15.08.2017 15:00:00 19,2 17,3 18,7 2 1 14 8 - 1013,7 10 0,1
15.08.2017 14:00:00 17,8 16,8 17,8 8 4 14 8 ONO 1013,5 5 11,8
15.08.2017 13:00:00 18,1 16,8 17,4 22 12 25 14 OZO 1013,9 7 18,8
15.08.2017 12:00:00 18,9 16,8 18,4 16 9 32 18 O 1014,7 10 0,2
15.08.2017 11:00:00 17,5 16,8 17,6 11 6 18 10 NW 1013,3 10 0,5
15.08.2017 10:00:00 16,8 16,0 16,4 9 5 14 8 N 1013,6 10 3,7
15.08.2017 09:00:00 17,1 15,2 16,6 29 16 36 19 WZW 1015,6 10 1,3
15.08.2017 08:00:00 19,3 17,0 18,3 8 4 11 6 OZO 1014,2 10 0,0
15.08.2017 07:00:00 19,4 16,1 17,9 9 5 14 8 OZO 1012,7 10 0,0
15.08.2017 06:00:00 18,9 14,6 16,9 9 5 11 6 OZO 1013,0 10 0,0
15.08.2017 05:00:00 19,0 15,5 16,8 8 4 14 8 OZO 1013,7 10 0,0
15.08.2017 04:00:00 18,9 15,0 15,6 5 3 11 6 ZO 1014,0 10 0,0
15.08.2017 03:00:00 19,1 14,9 17,1 5 3 7 4 ZO 1014,4 10 0,0
15.08.2017 02:00:00 19,6 15,3 18,2 8 4 11 6 ZZO 1014,7 10 0,0
15.08.2017 01:00:00 19,8 15,5 17,5 8 4 11 6 ZO 1015,1 10 0,0
15.08.2017 00:00:00 20,3 16,3 18,2 13 7 14 8 ZZO 1015,3 10 0,0
14.08.2017 23:00:00 20,5 15,8 17,5 8 4 7 4 ZO 1015,6 10 0,0
14.08.2017 22:00:00 20,9 15,7 17,9 8 4 11 6 ZZO 1015,9 10 0,0
14.08.2017 21:00:00 21,6 14,9 17,8 4 2 7 4 O 1015,6 10 0,0
14.08.2017 20:00:00 22,4 15,6 21,3 9 5 11 6 ZZW 1015,7 10 0,0
14.08.2017 19:00:00 23,2 15,2 23,5 13 7 18 10 Z 1015,8 10 0,0
14.08.2017 18:00:00 23,8 14,5 25,0 13 7 18 10 Z 1016,2 10 0,0
14.08.2017 17:00:00 23,5 13,6 23,3 18 10 25 14 Z 1016,5 10 0,0
14.08.2017 16:00:00 22,9 12,7 22,1 15 8 18 10 O 1016,9 10 0,0
14.08.2017 15:00:00 22,6 13,9 24,7 13 7 14 8 O 1017,5 10 0,0
14.08.2017 14:00:00 22,9 15,0 25,6 8 4 11 6 OZO 1018,1 10 0,0
14.08.2017 13:00:00 21,5 15,6 24,8 4 2 7 4 - 1018,7 10 0,0
14.08.2017 12:00:00 20,4 14,6 23,9 4 2 7 4 - 1019,1 10 0,0
14.08.2017 11:00:00 19,8 14,5 22,3 11 6 14 8 OZO 1019,5 10 0,0
14.08.2017 10:00:00 18,3 14,2 18,8 9 5 18 10 O 1019,6 10 0,0
14.08.2017 09:00:00 16,8 15,2 16,7 9 5 11 6 ONO 1019,8 10 0,0
14.08.2017 08:00:00 15,6 13,7 15,2 8 4 7 4 NO 1019,9 10 0,0
14.08.2017 07:00:00 15,4 13,4 14,7 8 4 11 6 O 1019,8 10 0,0
14.08.2017 06:00:00 15,5 13,5 14,1 5 3 11 6 ONO 1019,9 10 0,0
14.08.2017 05:00:00 15,5 13,0 13,9 5 3 7 4 NO 1020,2 10 0,0
14.08.2017 04:00:00 15,7 13,9 14,3 13 7 14 8 ONO 1020,4 10 0,0
14.08.2017 03:00:00 16,2 13,9 14,6 8 4 11 6 N 1020,9 10 0,0
14.08.2017 02:00:00 16,5 14,1 15,6 5 3 11 6 N 1021,4 10 0,0
14.08.2017 01:00:00 16,9 14,2 15,8 9 5 11 6 NNO 1021,8 10 0,0
14.08.2017 00:00:00 16,7 14,1 15,5 5 3 7 4 N 1021,9 10 0,0

tt = temperatuur
td = dauwpunt
tt 5cm = temperatuur 5cm
ff = windsnelheid
fx = windstoten
dd = windrichting
ppp = luchtdruk
vv = zicht
rr = neerslag

Weerstations in de omgeving